Weather Roundup
Issued by NWS Chicago, IL

Home | Current Version | Previous Version | Text Only | Print | Product List | Glossary Off
Versions: 1 2 3 4 5 6 7 8 9 10 11 12 13 14 15 16 17 18 19 20 21 22 23 24 25 26 27 28 29 30 31 32 33 34 35 36 37 38 39 40 41 42 43 44 45 46 47 48 49 50

000
NZUS59 KLOT 202358
HRRLOT

CHICAGO AREA WEATHER ROUNDUP
NATIONAL WEATHER SERVICE CHICAGO/ROMEOVILLE IL
600 PM CST SAT DEC 20 2014

NOTE: "FAIR" INDICATES FEW OR NO CLOUDS BELOW 12,000 FEET WITH NO
SIGNIFICANT WEATHER AND/OR OBSTRUCTIONS TO VISIBILITY.

* THESE STATIONS ARE NOT UNDER NWS QUALITY CONTROL. THEY ALSO MAY NOT
  REPORT WEATHER SUCH AS PRECIPITATION OR FOG.

ILZ005-006-012>014-019>023-210100-
NORTHEAST ILLINOIS

CITY           SKY/WX    TMP DP  RH WIND       PRES   REMARKS
OHARE          CLOUDY    32  24  72 S3        30.25S
6HR MIN TEMP:  31; 6HR MAX TEMP:  33; 6HR PCP: TRACE;

MIDWAY         FLURRIES  34  26  72 S6        30.27R WCI  29
6HR MIN TEMP:  34; 6HR MAX TEMP:  35; 6HR PCP: TRACE;

AURORA         CLOUDY    32  26  78 SE5       30.25S WCI  27
6HR MIN TEMP:  31; 6HR MAX TEMP:  33;

WAUKEGAN       NOT AVBL
DUPAGE AIRPORT CLOUDY    31  26  82 S5        30.25R WCI  26
6HR MIN TEMP:  31; 6HR MAX TEMP:  33;

WHEELING       CLOUDY    33  24  69 SW7       30.28R WCI  27
6HR MIN TEMP:  31; 6HR MAX TEMP:  33;

NORTHERLY IS     N/A     33  25  72 S5          N/A  WCI  29
$$

WIZ051-052-058>065-066-070>072-210100-
SOUTHEAST WISCONSIN

CITY           SKY/WX    TMP DP  RH WIND       PRES   REMARKS
MILWAUKEE      CLOUDY    31  23  72 S3        30.25R
6HR MIN TEMP:  30; 6HR MAX TEMP:  32; 6HR PCP: TRACE;

KENOSHA*       CLOUDY    31  25  78 S3        30.25R
RACINE*        CLOUDY    31  24  75 CALM      30.26S
WAUKESHA       CLOUDY    28  25  86 SE3       30.24R
$$

INZ001>003-010>013-019-020-210100-
NORTHWEST INDIANA

CITY           SKY/WX    TMP DP  RH WIND       PRES   REMARKS
GARY*          CLOUDY    34  23  64 CALM      30.28R
MICHIGAN CITY* NOT AVBL
RENSSELAER*    NOT AVBL
$$

LMZ740>746-210100-
SOUTHERN LAKE MICHIGAN

STATION/POSITION TIME  SKY/WX   TEMP WIND        PRES    VSBY
                                AIR  DIR/SP/G
                 (UTC)          (F)  (DEG/KT/KT) (MB)    (MI)
HARRISON CRIB    2300            33  190/  8/  9   N/A
BURNHAM HARBOR   2300            33  190/  6/  6   N/A
CALUMET HARBOR   2300            33  200/  4/  5 1023.8R
BURNS HARBOR     NOT AVBL
MICHIGAN CITY    NOT AVBL
$$

ABBREVIATIONS USED IN REMARKS
   TC - TEMPERATURE IN CELSIUS
  WCI - WIND CHILL INDEX
   HX - HEAT INDEX
  VSB - VISIBILITY
$$


USA.gov is the U.S. government's official web portal to all federal, state and local government web resources and services.